User: anonymous   Login
Location: Chevoux
(46.3801°N, 4.9476°E)
Time: 11:12:17
(UTC+00:00)
Language:

H-2A R/B - Orbit

View from above orbital plane
View from above orbital plane
View from above satellite
View from above satellite

Ground track
Ground track

The orbit data is extracted from the following two-line orbital elements,

1 28932U 06002B   21101.14454916  .00000384  00000-0  41016-4 0  9992
2 28932  98.3314 114.2206 0089610  68.1060 334.0539 14.92501204825656
Epoch (UTC): 11 April 2021 03:28:09
Eccentricity: 0.0089610
inclination: 98.3314°
perigee height: 528 km
apogee height: 652 km
right ascension of ascending node: 114.2206°
argument of perigee: 68.1060°
revolutions per day: 14.92501204
mean anomaly at epoch: 334.0539°
orbit number at epoch: 82565

The dashed part of the orbit path shows where the satellite is in the earth's shadow,  

DLR